Time,TemperatureF,DewpointF,PressureIn,WindDirection,WindDirectionDegrees,WindSpeedMPH,WindSpeedGustMPH,Humidity,HourlyPrecipIn,Conditions,Clouds,dailyrainin,SoftwareType,DateUTC
2013-01-02 07:45:00,29.1,21.5,30.11,NNW,327,3.0,3.0,73,0.00,,,0.00,Wunderground v.1.15,2013-01-02 12:45:00,
2013-01-02 07:46:00,29.0,21.4,30.12,NNW,327,3.0,4.0,73,0.00,,,0.00,Wunderground v.1.15,2013-01-02 12:46:00,
2013-01-02 07:49:00,29.0,21.4,30.12,NNW,333,3.0,5.0,73,0.00,,,0.00,Wunderground v.1.15,2013-01-02 12:49:00,
2013-01-02 07:52:00,29.0,21.4,30.12,NNW,333,3.0,5.0,73,0.00,,,0.00,Wunderground v.1.15,2013-01-02 12:52:00,
2013-01-02 07:57:00,28.9,21.3,30.13,NNW,333,2.0,3.0,73,0.00,,,0.00,Wunderground v.1.15,2013-01-02 12:57:00,
2013-01-02 08:03:00,28.9,21.3,30.13,NNW,333,1.0,2.0,73,0.00,,,0.00,Wunderground v.1.15,2013-01-02 13:03:00,
2013-01-02 08:09:00,28.8,21.9,30.12,NE,43,1.0,2.0,75,0.00,,,0.00,Wunderground v.1.15,2013-01-02 13:09:00,
2013-01-02 08:14:00,28.7,22.1,30.13,NE,43,1.0,1.0,76,0.00,,,0.00,Wunderground v.1.15,2013-01-02 13:14:00,
2013-01-02 08:19:00,28.7,21.8,30.13,NE,42,0.0,1.0,75,0.00,,,0.00,Wunderground v.1.15,2013-01-02 13:19:00,
2013-01-02 08:25:00,28.5,21.3,30.13,NE,40,1.0,4.0,74,0.00,,,0.00,Wunderground v.1.15,2013-01-02 13:25:00,
2013-01-02 08:30:00,28.5,21.3,30.12,North,5,4.0,6.0,74,0.00,,,0.00,Wunderground v.1.15,2013-01-02 13:30:00,
2013-01-02 08:35:00,28.7,21.1,30.12,North,360,5.0,6.0,73,0.00,,,0.00,Wunderground v.1.15,2013-01-02 13:35:00,
2013-01-02 08:41:00,29.1,21.2,30.13,NNW,334,5.0,7.0,72,0.00,,,0.00,Wunderground v.1.15,2013-01-02 13:41:00,
2013-01-02 08:46:00,29.2,21.3,30.13,NNW,340,6.0,8.0,72,0.00,,,0.00,Wunderground v.1.15,2013-01-02 13:46:00,
2013-01-02 08:52:00,29.3,21.1,30.13,NNW,342,6.0,7.0,71,0.00,,,0.00,Wunderground v.1.15,2013-01-02 13:52:00,
2013-01-02 08:57:00,29.4,21.2,30.14,NNW,338,5.0,7.0,71,0.00,,,0.00,Wunderground v.1.15,2013-01-02 13:57:00,
2013-01-02 09:03:00,29.7,21.4,30.15,NNW,338,3.0,5.0,71,0.00,,,0.00,Wunderground v.1.15,2013-01-02 14:03:00,
2013-01-02 09:08:00,30.0,21.4,30.14,NNW,338,3.0,5.0,70,0.00,,,0.00,Wunderground v.1.15,2013-01-02 14:08:00,
2013-01-02 09:14:00,30.2,21.6,30.15,North,355,4.0,6.0,70,0.00,,,0.00,Wunderground v.1.15,2013-01-02 14:14:00,
2013-01-02 09:19:00,30.2,21.6,30.15,North,355,4.0,6.0,70,0.00,,,0.00,Wunderground v.1.15,2013-01-02 14:19:00,
2013-01-02 09:25:00,30.6,21.6,30.15,North,355,4.0,6.0,69,0.00,,,0.00,Wunderground v.1.15,2013-01-02 14:25:00,
2013-01-02 09:30:00,30.6,21.6,30.15,North,355,4.0,4.0,69,0.00,,,0.00,Wunderground v.1.15,2013-01-02 14:30:00,
2013-01-02 09:35:00,30.9,21.9,30.16,North,355,3.0,4.0,69,0.00,,,0.00,Wunderground v.1.15,2013-01-02 14:35:00,
2013-01-02 09:41:00,30.9,21.6,30.16,North,350,3.0,4.0,68,0.00,,,0.00,Wunderground v.1.15,2013-01-02 14:41:00,
2013-01-02 09:46:00,30.9,21.9,30.16,North,355,3.0,4.0,69,0.00,,,0.00,Wunderground v.1.15,2013-01-02 14:46:00,
2013-01-02 09:52:00,31.0,22.0,30.17,North,350,4.0,6.0,69,0.00,,,0.00,Wunderground v.1.15,2013-01-02 14:52:00,
2013-01-02 09:57:00,31.0,22.0,30.17,North,350,4.0,6.0,69,0.00,,,0.00,Wunderground v.1.15,2013-01-02 14:57:00,
2013-01-02 10:03:00,31.0,22.0,30.17,NNW,344,5.0,8.0,69,0.00,,,0.00,Wunderground v.1.15,2013-01-02 15:03:00,
2013-01-02 10:08:00,31.1,22.1,30.17,NNW,332,5.0,8.0,69,0.00,,,0.00,Wunderground v.1.15,2013-01-02 15:08:00,
2013-01-02 10:14:00,31.1,22.1,30.17,NW,320,6.0,7.0,69,0.00,,,0.00,Wunderground v.1.15,2013-01-02 15:14:00,
2013-01-02 10:19:00,31.3,22.0,30.17,NW,319,5.0,7.0,68,0.00,,,0.00,Wunderground v.1.15,2013-01-02 15:19:00,
2013-01-02 10:24:00,31.4,21.7,30.17,NW,325,5.0,8.0,67,0.00,,,0.00,Wunderground v.1.15,2013-01-02 15:24:00,
2013-01-02 10:30:00,31.3,22.3,30.16,NW,321,6.0,8.0,69,0.00,,,0.00,Wunderground v.1.15,2013-01-02 15:30:00,
2013-01-02 10:36:00,31.2,21.5,30.16,NW,311,7.0,10.0,67,0.00,,,0.00,Wunderground v.1.15,2013-01-02 15:36:00,
2013-01-02 10:41:00,31.4,22.4,30.16,WNW,300,7.0,10.0,69,0.00,,,0.00,Wunderground v.1.15,2013-01-02 15:41:00,
2013-01-02 10:47:00,31.1,22.1,30.17,NNW,334,7.0,10.0,69,0.00,,,0.00,Wunderground v.1.15,2013-01-02 15:47:00,
2013-01-02 10:52:00,31.3,22.0,30.16,NW,307,8.0,8.0,68,0.00,,,0.00,Wunderground v.1.15,2013-01-02 15:52:00,
2013-01-02 10:58:00,31.3,22.0,30.16,NW,325,7.0,8.0,68,0.00,,,0.00,Wunderground v.1.15,2013-01-02 15:58:00,
2013-01-02 11:04:00,31.4,22.1,30.17,NW,313,6.0,8.0,68,0.00,,,0.00,Wunderground v.1.15,2013-01-02 16:04:00,
2013-01-02 11:09:00,31.5,22.1,30.16,NW,323,6.0,8.0,68,0.00,,,0.00,Wunderground v.1.15,2013-01-02 16:09:00,
2013-01-02 11:14:00,31.6,21.5,30.16,WNW,296,7.0,10.0,66,0.00,,,0.00,Wunderground v.1.15,2013-01-02 16:14:00,
2013-01-02 11:20:00,31.9,22.2,30.16,NW,326,8.0,8.0,67,0.00,,,0.00,Wunderground v.1.15,2013-01-02 16:20:00,
2013-01-02 11:25:00,32.0,21.9,30.15,NNW,327,6.0,8.0,66,0.00,,,0.00,Wunderground v.1.15,2013-01-02 16:25:00,
2013-01-02 11:30:00,32.1,22.0,30.15,NW,322,6.0,6.0,66,0.00,,,0.00,Wunderground v.1.15,2013-01-02 16:30:00,
2013-01-02 11:36:00,32.3,21.8,30.15,NW,324,5.0,7.0,65,0.00,,,0.00,Wunderground v.1.15,2013-01-02 16:36:00,
2013-01-02 11:41:00,32.3,21.8,30.14,North,360,4.0,9.0,65,0.00,,,0.00,Wunderground v.1.15,2013-01-02 16:41:00,
2013-01-02 11:46:00,32.3,21.8,30.14,NNW,328,5.0,9.0,65,0.00,,,0.00,Wunderground v.1.15,2013-01-02 16:46:00,
2013-01-02 11:51:00,32.4,21.9,30.14,NW,322,6.0,9.0,65,0.00,,,0.00,Wunderground v.1.15,2013-01-02 16:51:00,
2013-01-02 11:57:00,32.2,21.7,30.14,NW,314,7.0,12.0,65,0.00,,,0.00,Wunderground v.1.15,2013-01-02 16:57:00,
2013-01-02 12:02:00,32.2,21.7,30.14,NW,326,7.0,10.0,65,0.00,,,0.00,Wunderground v.1.15,2013-01-02 17:02:00,
2013-01-02 12:07:00,32.2,21.7,30.13,NW,326,7.0,10.0,65,0.00,,,0.00,Wunderground v.1.15,2013-01-02 17:07:00,
2013-01-02 12:13:00,32.2,21.4,30.13,NW,313,7.0,8.0,64,0.00,,,0.00,Wunderground v.1.15,2013-01-02 17:13:00,
2013-01-02 12:19:00,32.4,21.2,30.13,WNW,300,7.0,10.0,63,0.00,,,0.00,Wunderground v.1.15,2013-01-02 17:19:00,
2013-01-02 12:24:00,32.4,21.6,30.13,NNW,329,7.0,9.0,64,0.00,,,0.00,Wunderground v.1.15,2013-01-02 17:24:00,
2013-01-02 12:29:00,32.3,21.5,30.13,NW,311,8.0,10.0,64,0.00,,,0.00,Wunderground v.1.15,2013-01-02 17:29:00,
2013-01-02 12:35:00,32.3,21.5,30.13,NW,321,8.0,10.0,64,0.00,,,0.00,Wunderground v.1.15,2013-01-02 17:35:00,
2013-01-02 12:40:00,32.3,21.1,30.13,NW,314,8.0,11.0,63,0.00,,,0.00,Wunderground v.1.15,2013-01-02 17:40:00,
2013-01-02 12:45:00,32.3,21.1,30.13,NW,322,8.0,11.0,63,0.00,,,0.00,Wunderground v.1.15,2013-01-02 17:45:00,
2013-01-02 12:51:00,32.3,21.1,30.13,NNW,333,8.0,8.0,63,0.00,,,0.00,Wunderground v.1.15,2013-01-02 17:51:00,
2013-01-02 12:56:00,32.1,20.9,30.13,NNW,334,8.0,10.0,63,0.00,,,0.00,Wunderground v.1.15,2013-01-02 17:56:00,
2013-01-02 13:01:00,32.2,21.0,30.13,NNW,348,7.0,8.0,63,0.00,,,0.00,Wunderground v.1.15,2013-01-02 18:01:00,
2013-01-02 13:07:00,32.2,20.6,30.13,WNW,300,6.0,10.0,62,0.00,,,0.00,Wunderground v.1.15,2013-01-02 18:07:00,
2013-01-02 13:12:00,32.4,21.2,30.13,NW,307,7.0,9.0,63,0.00,,,0.00,Wunderground v.1.15,2013-01-02 18:12:00,
2013-01-02 13:17:00,32.3,21.1,30.13,NW,317,8.0,11.0,63,0.00,,,0.00,Wunderground v.1.15,2013-01-02 18:17:00,
2013-01-02 13:23:00,32.3,20.7,30.13,NW,321,8.0,10.0,62,0.00,,,0.00,Wunderground v.1.15,2013-01-02 18:23:00,
2013-01-02 13:29:00,32.4,21.2,30.13,NW,324,8.0,10.0,63,0.00,,,0.00,Wunderground v.1.15,2013-01-02 18:29:00,
2013-01-02 13:34:00,32.4,21.2,30.13,NNW,329,8.0,8.0,63,0.00,,,0.00,Wunderground v.1.15,2013-01-02 18:34:00,
2013-01-02 13:39:00,32.3,20.3,30.13,WNW,292,7.0,11.0,61,0.00,,,0.00,Wunderground v.1.15,2013-01-02 18:39:00,
2013-01-02 13:45:00,32.0,20.1,30.14,NW,320,7.0,10.0,61,0.00,,,0.00,Wunderground v.1.15,2013-01-02 18:45:00,
2013-01-02 13:50:00,32.1,20.5,30.14,NW,322,8.0,8.0,62,0.00,,,0.00,Wunderground v.1.15,2013-01-02 18:50:00,
2013-01-02 13:55:00,32.4,20.8,30.14,NW,323,7.0,9.0,62,0.00,,,0.00,Wunderground v.1.15,2013-01-02 18:55:00,
2013-01-02 14:01:00,32.1,20.5,30.14,NNW,330,8.0,8.0,62,0.00,,,0.00,Wunderground v.1.15,2013-01-02 19:01:00,
2013-01-02 14:06:00,32.0,21.2,30.13,NW,323,8.0,9.0,64,0.00,,,0.00,Wunderground v.1.15,2013-01-02 19:06:00,
2013-01-02 14:11:00,32.1,20.5,30.14,NW,314,7.0,8.0,62,0.00,,,0.00,Wunderground v.1.15,2013-01-02 19:11:00,
2013-01-02 14:17:00,32.4,20.4,30.14,WNW,301,7.0,8.0,61,0.00,,,0.00,Wunderground v.1.15,2013-01-02 19:17:00,
2013-01-02 14:22:00,32.4,20.8,30.14,NNW,329,6.0,10.0,62,0.00,,,0.00,Wunderground v.1.15,2013-01-02 19:22:00,
2013-01-02 14:28:00,32.1,20.2,30.14,WNW,302,7.0,10.0,61,0.00,,,0.00,Wunderground v.1.15,2013-01-02 19:28:00,
2013-01-02 14:34:00,32.1,20.2,30.14,NW,321,7.0,11.0,61,0.00,,,0.00,Wunderground v.1.15,2013-01-02 19:34:00,
2013-01-02 14:39:00,32.1,20.2,30.14,NW,323,7.0,11.0,61,0.00,,,0.00,Wunderground v.1.15,2013-01-02 19:39:00,
2013-01-02 14:44:00,32.4,20.0,30.14,NW,304,6.0,8.0,60,0.00,,,0.00,Wunderground v.1.15,2013-01-02 19:44:00,
2013-01-02 14:50:00,32.7,20.3,30.14,NW,313,6.0,6.0,60,0.00,,,0.00,Wunderground v.1.15,2013-01-02 19:50:00,
2013-01-02 14:55:00,32.9,20.1,30.15,NNW,331,6.0,7.0,59,0.00,,,0.00,Wunderground v.1.15,2013-01-02 19:55:00,
2013-01-02 15:01:00,32.8,19.6,30.15,NW,319,6.0,6.0,58,0.00,,,0.00,Wunderground v.1.15,2013-01-02 20:01:00,
2013-01-02 15:06:00,32.7,19.1,30.15,NW,323,6.0,8.0,57,0.00,,,0.00,Wunderground v.1.15,2013-01-02 20:06:00,
2013-01-02 15:11:00,32.6,18.6,30.15,NW,310,7.0,7.0,56,0.00,,,0.00,Wunderground v.1.15,2013-01-02 20:11:00,
2013-01-02 15:17:00,32.7,18.7,30.16,NW,311,7.0,11.0,56,0.00,,,0.00,Wunderground v.1.15,2013-01-02 20:17:00,
2013-01-02 15:22:00,32.6,19.0,30.16,NW,319,7.0,8.0,57,0.00,,,0.00,Wunderground v.1.15,2013-01-02 20:22:00,
2013-01-02 15:27:00,32.6,18.6,30.16,NNW,333,7.0,8.0,56,0.00,,,0.00,Wunderground v.1.15,2013-01-02 20:27:00,
2013-01-02 15:33:00,32.5,18.5,30.16,NW,321,6.0,9.0,56,0.00,,,0.00,Wunderground v.1.15,2013-01-02 20:33:00,
2013-01-02 15:39:00,32.5,19.3,30.16,NW,315,7.0,9.0,58,0.00,,,0.00,Wunderground v.1.15,2013-01-02 20:39:00,
2013-01-02 15:44:00,32.5,18.9,30.16,WNW,302,7.0,7.0,57,0.00,,,0.00,Wunderground v.1.15,2013-01-02 20:44:00,
2013-01-02 15:49:00,32.5,18.5,30.17,WNW,288,7.0,10.0,56,0.00,,,0.00,Wunderground v.1.15,2013-01-02 20:49:00,
2013-01-02 15:54:00,32.5,18.1,30.17,NW,306,7.0,7.0,55,0.00,,,0.00,Wunderground v.1.15,2013-01-02 20:54:00,
2013-01-02 16:00:00,32.1,18.2,30.17,WNW,303,6.0,6.0,56,0.00,,,0.00,Wunderground v.1.15,2013-01-02 21:00:00,
2013-01-02 16:05:00,32.1,17.3,30.17,WNW,296,5.0,8.0,54,0.00,,,0.00,Wunderground v.1.15,2013-01-02 21:05:00,
2013-01-02 16:10:00,31.8,17.0,30.18,WNW,284,6.0,8.0,54,0.00,,,0.00,Wunderground v.1.15,2013-01-02 21:10:00,
2013-01-02 16:16:00,31.6,17.3,30.18,West,277,6.0,8.0,55,0.00,,,0.00,Wunderground v.1.15,2013-01-02 21:16:00,
2013-01-02 16:21:00,31.4,17.5,30.17,WNW,298,5.0,5.0,56,0.00,,,0.00,Wunderground v.1.15,2013-01-02 21:21:00,
2013-01-02 16:27:00,31.2,16.9,30.18,WNW,296,4.0,7.0,55,0.00,,,0.00,Wunderground v.1.15,2013-01-02 21:27:00,
2013-01-02 16:32:00,30.9,17.4,30.18,NW,316,4.0,6.0,57,0.00,,,0.00,Wunderground v.1.15,2013-01-02 21:32:00,
2013-01-02 16:38:00,30.6,17.2,30.18,NW,316,4.0,6.0,57,0.00,,,0.00,Wunderground v.1.15,2013-01-02 21:38:00,
2013-01-02 16:43:00,30.5,16.7,30.17,NW,316,3.0,4.0,56,0.00,,,0.00,Wunderground v.1.15,2013-01-02 21:43:00,
2013-01-02 16:49:00,30.4,16.6,30.17,NW,313,3.0,5.0,56,0.00,,,0.00,Wunderground v.1.15,2013-01-02 21:49:00,
2013-01-02 16:54:00,30.3,16.5,30.18,NW,309,3.0,7.0,56,0.00,,,0.00,Wunderground v.1.15,2013-01-02 21:54:00,
2013-01-02 16:59:00,30.1,16.7,30.18,NW,309,2.0,7.0,57,0.00,,,0.00,Wunderground v.1.15,2013-01-02 21:59:00,
2013-01-02 17:05:00,29.7,16.7,30.19,NW,309,0.0,2.0,58,0.00,,,0.00,Wunderground v.1.15,2013-01-02 22:05:00,
2013-01-02 17:10:00,29.3,16.3,30.19,NW,309,0.0,3.0,58,0.00,,,0.00,Wunderground v.1.15,2013-01-02 22:10:00,
2013-01-02 17:16:00,28.9,16.4,30.18,NW,309,1.0,3.0,59,0.00,,,0.00,Wunderground v.1.15,2013-01-02 22:16:00,
2013-01-02 17:21:00,28.6,16.8,30.18,NW,309,0.0,0.0,61,0.00,,,0.00,Wunderground v.1.15,2013-01-02 22:21:00,
2013-01-02 17:26:00,28.2,16.8,30.19,NW,309,0.0,0.0,62,0.00,,,0.00,Wunderground v.1.15,2013-01-02 22:26:00,
2013-01-02 17:32:00,27.5,17.3,30.19,NW,309,0.0,0.0,65,0.00,,,0.00,Wunderground v.1.15,2013-01-02 22:32:00,
2013-01-02 17:37:00,26.8,17.3,30.19,NW,309,0.0,0.0,67,0.00,,,0.00,Wunderground v.1.15,2013-01-02 22:37:00,
2013-01-02 17:42:00,26.1,17.0,30.19,NW,309,0.0,0.0,68,0.00,,,0.00,Wunderground v.1.15,2013-01-02 22:42:00,
2013-01-02 17:48:00,25.5,17.1,30.20,NW,309,0.0,0.0,70,0.00,,,0.00,Wunderground v.1.15,2013-01-02 22:48:00,
2013-01-02 17:54:00,25.3,16.9,30.20,NW,309,0.0,0.0,70,0.00,,,0.00,Wunderground v.1.15,2013-01-02 22:54:00,
2013-01-02 17:59:00,25.2,16.8,30.20,NW,309,0.0,0.0,70,0.00,,,0.00,Wunderground v.1.15,2013-01-02 22:59:00,
2013-01-02 18:04:00,25.4,16.6,30.21,NW,309,0.0,0.0,69,0.00,,,0.00,Wunderground v.1.15,2013-01-02 23:04:00,
2013-01-02 18:10:00,26.0,16.9,30.20,NW,309,0.0,0.0,68,0.00,,,0.00,Wunderground v.1.15,2013-01-02 23:10:00,
2013-01-02 18:15:00,26.0,17.6,30.20,NW,309,0.0,0.0,70,0.00,,,0.00,Wunderground v.1.15,2013-01-02 23:15:00,
2013-01-02 18:21:00,25.4,17.6,30.20,NW,309,0.0,0.0,72,0.00,,,0.00,Wunderground v.1.15,2013-01-02 23:21:00,
2013-01-02 18:26:00,24.8,17.1,30.21,NW,309,0.0,0.0,72,0.00,,,0.00,Wunderground v.1.15,2013-01-02 23:26:00,
2013-01-02 18:31:00,24.7,17.3,30.21,NW,309,0.0,0.0,73,0.00,,,0.00,Wunderground v.1.15,2013-01-02 23:31:00,
2013-01-02 18:37:00,25.4,17.3,30.21,NW,309,0.0,0.0,71,0.00,,,0.00,Wunderground v.1.15,2013-01-02 23:37:00,
2013-01-02 18:42:00,26.2,17.4,30.21,NW,309,0.0,0.0,69,0.00,,,0.00,Wunderground v.1.15,2013-01-02 23:42:00,
2013-01-02 18:47:00,26.7,17.9,30.21,NW,309,0.0,0.0,69,0.00,,,0.00,Wunderground v.1.15,2013-01-02 23:47:00,
2013-01-02 18:53:00,26.3,17.8,30.21,NW,309,0.0,0.0,70,0.00,,,0.00,Wunderground v.1.15,2013-01-02 23:53:00,
2013-01-02 18:59:00,25.9,17.5,30.22,NW,309,0.0,0.0,70,0.00,,,0.00,Wunderground v.1.15,2013-01-02 23:59:00,
2013-01-02 19:04:00,25.8,17.0,30.22,NW,309,0.0,0.0,69,0.00,,,0.00,Wunderground v.1.15,2013-01-03 00:04:00,
2013-01-02 19:09:00,25.7,17.6,30.21,NW,309,0.0,0.0,71,0.00,,,0.00,Wunderground v.1.15,2013-01-03 00:09:00,
2013-01-02 19:15:00,24.9,17.8,30.21,NW,309,0.0,1.0,74,0.00,,,0.00,Wunderground v.1.15,2013-01-03 00:15:00,
2013-01-02 19:20:00,24.5,17.7,30.21,NW,309,0.0,0.0,75,0.00,,,0.00,Wunderground v.1.15,2013-01-03 00:20:00,
2013-01-02 19:26:00,24.6,16.9,30.21,NW,309,0.0,0.0,72,0.00,,,0.00,Wunderground v.1.15,2013-01-03 00:26:00,
2013-01-02 19:31:00,25.1,17.0,30.22,NW,309,0.0,1.0,71,0.00,,,0.00,Wunderground v.1.15,2013-01-03 00:31:00,
2013-01-02 19:37:00,26.1,17.3,30.22,NW,309,1.0,2.0,69,0.00,,,0.00,Wunderground v.1.15,2013-01-03 00:37:00,
2013-01-02 19:43:00,27.0,16.8,30.22,NW,309,0.0,1.0,65,0.00,,,0.00,Wunderground v.1.15,2013-01-03 00:43:00,
2013-01-02 19:48:00,27.3,16.7,30.22,NW,309,0.0,1.0,64,0.00,,,0.00,Wunderground v.1.15,2013-01-03 00:48:00,
2013-01-02 19:54:00,27.4,16.8,30.22,NW,309,0.0,0.0,64,0.00,,,0.00,Wunderground v.1.15,2013-01-03 00:54:00,
2013-01-02 19:59:00,27.2,17.0,30.22,NW,309,0.0,0.0,65,0.00,,,0.00,Wunderground v.1.15,2013-01-03 00:59:00,
2013-01-02 20:04:00,27.3,17.1,30.22,NW,309,0.0,0.0,65,0.00,,,0.00,Wunderground v.1.15,2013-01-03 01:04:00,
2013-01-02 20:10:00,27.3,17.1,30.22,NW,309,0.0,0.0,65,0.00,,,0.00,Wunderground v.1.15,2013-01-03 01:10:00,
2013-01-02 20:15:00,27.1,17.2,30.23,NW,309,0.0,2.0,66,0.00,,,0.00,Wunderground v.1.15,2013-01-03 01:15:00,
2013-01-02 20:21:00,26.8,17.0,30.23,NW,309,0.0,0.0,66,0.00,,,0.00,Wunderground v.1.15,2013-01-03 01:21:00,
2013-01-02 20:26:00,26.7,16.9,30.23,NW,309,0.0,0.0,66,0.00,,,0.00,Wunderground v.1.15,2013-01-03 01:26:00,
2013-01-02 20:31:00,26.8,17.0,30.22,NW,309,0.0,2.0,66,0.00,,,0.00,Wunderground v.1.15,2013-01-03 01:31:00,
2013-01-02 20:37:00,26.9,17.0,30.22,NW,309,0.0,2.0,66,0.00,,,0.00,Wunderground v.1.15,2013-01-03 01:37:00,
2013-01-02 20:42:00,27.0,17.5,30.22,NW,309,0.0,1.0,67,0.00,,,0.00,Wunderground v.1.15,2013-01-03 01:42:00,
2013-01-02 20:48:00,26.9,17.7,30.23,NW,309,0.0,1.0,68,0.00,,,0.00,Wunderground v.1.15,2013-01-03 01:48:00,
2013-01-02 20:54:00,26.7,17.2,30.24,NW,309,0.0,0.0,67,0.00,,,0.00,Wunderground v.1.15,2013-01-03 01:54:00,
2013-01-02 20:59:00,26.8,17.3,30.23,NW,309,0.0,0.0,67,0.00,,,0.00,Wunderground v.1.15,2013-01-03 01:59:00,
2013-01-02 21:04:00,26.9,17.4,30.24,NW,309,0.0,0.0,67,0.00,,,0.00,Wunderground v.1.15,2013-01-03 02:04:00,
2013-01-02 21:10:00,27.0,17.1,30.24,NW,309,0.0,0.0,66,0.00,,,0.00,Wunderground v.1.15,2013-01-03 02:10:00,